WetterOnline ( http://www.wetteronline.de )

Wetter aktuell Eisenach

Aktuelles Wetter: Eisenach (312m)

6-stündlich | Neueste Meldungen
Ortszeit Temperatur Wetter
So, 21.10. 2:00 4.1° C wolkig
Sa, 20.10. 20:00 9.4° C wolkig
Sa, 20.10. 14:00 12.6° C wolkig
Sa, 20.10. 8:00 4.1° C wolkenlos
Sa, 20.10. 2:00 8.0° C bedeckt
Fr, 19.10. 20:00 11.0° C bedeckt
Fr, 19.10. 14:00 12.5° C bedeckt
Fr, 19.10. 8:00 10.3° C bedeckt
Ortszeit Temperatur Wetter
So, 21.10. 3:00 3.3° C leicht bewölkt
So, 21.10. 2:50 3.3° C leicht bewölkt
So, 21.10. 2:40 3.9° C wolkig
So, 21.10. 2:30 4.5° C wolkenlos
So, 21.10. 2:20 4.5° C wolkenlos
So, 21.10. 2:10 4.6° C fast wolkenlos
So, 21.10. 2:00 4.1° C wolkig
So, 21.10. 1:30 4.3° C wolkig
So, 21.10. 1:00 4.6° C leicht bewölkt
So, 21.10. 0:30 4.5° C wolkenlos
So, 21.10. 0:00 5.3° C fast wolkenlos
Ortszeit Relative Feuchte Sichtweite
So, 21.10. 2:00 95% 8 km
Sa, 20.10. 20:00 70% 23 km
Sa, 20.10. 14:00 60% 25 km
Sa, 20.10. 8:00 96% 9 km
Sa, 20.10. 2:00 78% 35 km
Fr, 19.10. 20:00 66% 55 km
Fr, 19.10. 14:00 75% 17 km
Fr, 19.10. 8:00 99% 2.0 km
Ortszeit Relative Feuchte Sichtweite
So, 21.10. 3:00 95% 6 km
So, 21.10. 2:50 95% -
So, 21.10. 2:40 95% -
So, 21.10. 2:30 94% 12 km
So, 21.10. 2:20 94% -
So, 21.10. 2:10 93% -
So, 21.10. 2:00 95% 8 km
So, 21.10. 1:30 94% 10 km
So, 21.10. 1:00 93% 10 km
So, 21.10. 0:30 91% 9 km
So, 21.10. 0:00 89% 13 km
Ortszeit Niederschlagsmenge Niederschlagsart
So, 21.10. 2:00 0.0 l/m2 in 6 Std. -
Sa, 20.10. 20:00 0.0 l/m2 in 12 Std. -
Sa, 20.10. 14:00 0.0 l/m2 in 6 Std. -
Sa, 20.10. 8:00 0.0 l/m2 in 12 Std. -
Sa, 20.10. 2:00 0.0 l/m2 in 6 Std. -
Fr, 19.10. 20:00 0.0 l/m2 in 12 Std. -
Fr, 19.10. 14:00 0.0 l/m2 in 6 Std. -
Fr, 19.10. 8:00 0.4 l/m2 in 12 Std. Regen
Ortszeit Niederschlagsmenge Niederschlagsart
So, 21.10. 3:00 0.0 l/m2 in 1 Std. -
So, 21.10. 2:50 keine Meldung -
So, 21.10. 2:40 keine Meldung -
So, 21.10. 2:30 0.0 l/m2 in 1 Std. -
So, 21.10. 2:20 keine Meldung -
So, 21.10. 2:10 keine Meldung -
So, 21.10. 2:00 0.0 l/m2 in 1 Std. -
So, 21.10. 1:30 0.0 l/m2 in 1 Std. -
So, 21.10. 1:00 0.0 l/m2 in 1 Std. -
So, 21.10. 0:30 0.0 l/m2 in 1 Std. -
So, 21.10. 0:00 0.0 l/m2 in 1 Std. -
Ortszeit Stärke Spitze Richtung
km/h Bft. km/h Grad Sektor
So, 21.10. 2:00 6 1 15 250° W
Sa, 20.10. 20:00 7 2 22 350° N
Sa, 20.10. 14:00 11 2 18 310° NW
Sa, 20.10. 8:00 7 2 7 340° N
Sa, 20.10. 2:00 4 1 14 120° SO
Fr, 19.10. 20:00 11 2 25 90° O
Fr, 19.10. 14:00 17 3 26 100° O
Fr, 19.10. 8:00 17 3 22 70° O
Ortszeit Stärke Spitze Richtung
km/h Bft. km/h Grad Sektor
So, 21.10. 3:00 2 1 9 50° NO
So, 21.10. 2:50 2 1 - 50° NO
So, 21.10. 2:40 4 1 - 300° NW
So, 21.10. 2:30 7 2 11 290° W
So, 21.10. 2:20 7 2 - 290° W
So, 21.10. 2:10 7 2 - 290° W
So, 21.10. 2:00 6 1 6 250° W
So, 21.10. 1:30 4 1 4 210° SW
So, 21.10. 1:00 0 0 7 - -
So, 21.10. 0:30 4 1 7 360° N
So, 21.10. 0:00 4 1 7 260° W
Ortszeit Untergrenze Bedeckung Gattung
total tief tief mittel hoch
So, 21.10. 2:00 5100 m 6/8 6/8 - - -
Sa, 20.10. 20:00 10500 m 8/8 0/8 - - -
Sa, 20.10. 14:00 870 m 6/8 4/8 - - -
Sa, 20.10. 8:00 - 0/8 0/8 - - -
Sa, 20.10. 2:00 1320 m 8/8 8/8 - - -
Fr, 19.10. 20:00 870 m 8/8 8/8 - - -
Fr, 19.10. 14:00 540 m 8/8 8/8 - - -
Fr, 19.10. 8:00 90 m 8/8 8/8 - - -
Ortszeit Bedeckungsgrad in Achtel und Wolkenuntergrenze
So, 21.10. 3:00 1(1800m) 4(4800m)
So, 21.10. 2:50 1(1800m) 4(4800m)
So, 21.10. 2:40 5(4800m)
So, 21.10. 2:30 3(4800m)
So, 21.10. 2:20 keine Wolken
So, 21.10. 2:10 1(5100m)
So, 21.10. 2:00 6(5100m)
So, 21.10. 1:30 5(5100m)
So, 21.10. 1:00 4(5700m)
So, 21.10. 0:30 2(5700m)
So, 21.10. 0:00 2(9000m)
Ortszeit Luftdruck NN (hPa) Tendenz (hPa in 3 Std.)
So, 21.10. 2:00 1031 - 0,4
Sa, 20.10. 20:00 1031 + 0,9
Sa, 20.10. 14:00 1029 - 0,3
Sa, 20.10. 8:00 1029 + 0,8
Sa, 20.10. 2:00 1027 + 0,3
Fr, 19.10. 20:00 1025 + 0,7
Fr, 19.10. 14:00 1025 - 0,6
Fr, 19.10. 8:00 1025 + 0,4
Ortszeit Luftdruck NN (hPa) Tendenz (hPa in 3 Std.)
So, 21.10. 3:00 1031 - 0,6
So, 21.10. 2:50 1031 keine Meldung
So, 21.10. 2:40 1031 keine Meldung
So, 21.10. 2:30 1031 - 0,6
So, 21.10. 2:20 1031 keine Meldung
So, 21.10. 2:10 1031 keine Meldung
So, 21.10. 2:00 1031 - 0,4
So, 21.10. 1:30 1031 - 0,5
So, 21.10. 1:00 1031 - 0,2
So, 21.10. 0:30 1031 0,0
So, 21.10. 0:00 1032 + 0,4
Ortszeit Schneehöhe (cm)
So, 21.10. 2:00 0
Sa, 20.10. 20:00 0
Sa, 20.10. 14:00 0
Sa, 20.10. 8:00 0
Sa, 20.10. 2:00 0
Fr, 19.10. 20:00 0
Fr, 19.10. 14:00 0
Fr, 19.10. 8:00 0
Ortszeit Schneehöhe (cm)
So, 21.10. 3:00 0
So, 21.10. 2:50 0
So, 21.10. 2:40 0
So, 21.10. 2:30 0
So, 21.10. 2:20 0
So, 21.10. 2:10 0
So, 21.10. 2:00 0
So, 21.10. 1:30 0
So, 21.10. 1:00 0
So, 21.10. 0:30 0
So, 21.10. 0:00 0
Link zu dieser Seite / Seite empfehlen

Das Wetter in ...